This is the latest recevied weather packets stored in our database for station/object KQ7A. If no packets are shown the sender has not sent any weather packets the latest 10 day(s).
| Time | Temp. | Humidity | Pressure | Rain* | Wind** | Luminosity | Snow |
|---|---|---|---|---|---|---|---|
| 1778046961 | 8.89° C | 82% | 1017.1 hPa | 0 mm | - | 0 W/m² | - |
| 1778046657 | 8.89° C | 82% | 1016.7 hPa | 0 mm | - | 0 W/m² | - |
| 1778046354 | 8.89° C | 82% | 1016.3 hPa | 0 mm | - | 0 W/m² | - |
| 1778046050 | 8.89° C | 82% | 1016.3 hPa | 0 mm | - | 0 W/m² | - |
| 1778045748 | 8.89° C | 84% | 1016.1 hPa | 0 mm | - | 0 W/m² | - |
| 1778045447 | 8.89° C | 84% | 1016.3 hPa | 0 mm | - | 0 W/m² | - |
| 1778045144 | 8.89° C | 85% | 1015.9 hPa | 0 mm | - | 0 W/m² | - |
| 1778044842 | 8.89° C | 85% | 1016 hPa | 0 mm | - | 0 W/m² | - |
| 1778044538 | 8.89° C | 84% | 1016.2 hPa | 0 mm | - | 0 W/m² | - |
| 1778044235 | 8.89° C | 82% | 1016 hPa | 0 mm | - | 0 W/m² | - |
| 1778043933 | 8.89° C | 81% | 1016.2 hPa | 0 mm | - | 0 W/m² | - |
| 1778043630 | 8.89° C | 81% | 1016 hPa | 0 mm | - | 0 W/m² | - |
| 1778043327 | 8.89° C | 82% | 1016.1 hPa | 0 mm | - | 0 W/m² | - |
| 1778043024 | 8.89° C | 81% | 1016 hPa | 0 mm | - | 0 W/m² | - |
| 1778042722 | 8.89° C | 80% | 1015.4 hPa | 0 mm | - | 0 W/m² | - |
| 1778042418 | 8.89° C | 79% | 1015.9 hPa | 0 mm | - | 0 W/m² | - |
| 1778042115 | 9.44° C | 79% | 1015.6 hPa | 0 mm | - | 0 W/m² | - |
| 1778041814 | 8.89° C | 80% | 1015.6 hPa | 0 mm | - | 0 W/m² | - |
| 1778041513 | 8.89° C | 80% | 1015.6 hPa | 0 mm | - | 0 W/m² | - |
| 1778041210 | 8.89° C | 84% | 1015.5 hPa | 0 mm | - | 0 W/m² | - |
| 1778040909 | 9.44° C | 84% | 1015.8 hPa | 0 mm | - | 0 W/m² | - |
| 1778040605 | 9.44° C | 80% | 1015.8 hPa | 0 mm | - | 0 W/m² | - |
| 1778040303 | 10° C | 76% | 1015.6 hPa | 0 mm | - | 0 W/m² | - |
| 1778039998 | 10° C | 75% | 1015.8 hPa | 0 mm | - | 0 W/m² | - |
| 1778039695 | 10° C | 76% | 1015.6 hPa | 0 mm | - | 0 W/m² | - |
* Rain latest hour (hover to see other rain measurements)
** Current wind speed in m/s (hover to see current wind gust speed)